Location: Newark
(25.1500°N, 87.0200°E)
Time: 02:12:33
(UTC+00:00)

Hubble Space Telescope - Visible Passes

Search period start: 14 December 2019 00:00
Search period end: 24 December 2019 00:00
Orbit: 536 x 540 km, 28.5° (Epoch: 12 December)

Date Brightness Start Highest point End Pass type
(mag) Time Alt. Az. Time Alt. Az. Time Alt. Az.
14 Dec 2.0 22:42:39 39° ESE 22:42:39 39° ESE 22:45:43 10° E visible
15 Dec 0.8 00:18:46 10° W 00:22:53 66° N 00:27:01 10° ENE visible
15 Dec 2.7 22:33:04 28° E 22:33:04 28° E 22:35:11 10° E visible
16 Dec 0.9 00:08:25 11° W 00:12:20 60° N 00:16:26 10° ENE visible
16 Dec 3.3 22:23:21 19° E 22:23:21 19° E 22:24:38 10° ENE visible
16 Dec 1.0 23:58:43 16° W 00:01:48 55° N 00:05:52 10° ENE visible
17 Dec 3.8 22:13:34 13° ENE 22:13:34 13° ENE 22:14:04 10° ENE visible
17 Dec 1.0 23:48:55 23° WNW 23:51:15 53° N 23:55:18 10° ENE visible
18 Dec 1.1 23:39:03 31° WNW 23:40:43 52° N 23:44:45 10° ENE visible
19 Dec 1.1 23:29:08 40° NW 23:30:11 52° N 23:34:14 10° E visible
20 Dec 0.9 23:19:11 51° NNW 23:19:38 55° N 23:23:42 10° E visible
21 Dec 1.0 23:09:13 58° NNE 23:09:13 58° NNE 23:13:11 10° E visible
22 Dec 1.3 22:59:15 53° ENE 22:59:15 53° ENE 23:02:39 10° E visible
23 Dec 1.9 22:49:17 41° E 22:49:17 41° E 22:52:06 10° E visible
